Location: Colorado National Monument
(39.1030°N, 108.7297°W)
Time: 08:02:45
(UTC-07:00)

ISS - Visible Passes

Search period start: 22 February 2019 00:00
Search period end: 04 March 2019 00:00
Orbit: 403 x 411 km, 51.6° (Epoch: 23 February)

Date Brightness Start Highest point End Pass type
(mag) Time Alt. Az. Time Alt. Az. Time Alt. Az.
22 Feb -0.8 05:31:19 10° SSE 05:33:02 14° SE 05:34:45 10° E visible
23 Feb -3.6 06:14:35 10° SW 06:17:49 73° SE 06:21:04 10° NE visible
24 Feb -2.4 05:24:44 20° S 05:26:28 35° SE 05:29:30 10° ENE visible
25 Feb -1.0 04:35:59 17° ESE 04:35:59 17° ESE 04:37:32 10° E visible
25 Feb -3.3 06:08:44 12° WSW 06:11:31 43° NNW 06:14:39 10° NE visible
26 Feb -4.0 05:19:47 73° W 05:20:02 82° NW 05:23:18 10° NE visible
27 Feb -1.1 04:30:40 19° ENE 04:30:40 19° ENE 04:31:47 10° ENE visible
27 Feb -2.2 06:03:23 14° WNW 06:05:19 22° NNW 06:07:56 10° NNE visible
28 Feb -2.7 05:14:09 32° NNW 05:14:09 32° NNW 05:16:43 10° NE visible
01 Mar -0.8 04:24:49 14° NE 04:24:49 14° NE 04:25:23 10° NE visible
01 Mar -1.6 05:57:32 10° NW 05:59:13 14° NNW 06:01:02 10° NNE visible
02 Mar -1.7 05:08:07 18° N 05:08:07 18° N 05:09:53 10° NNE visible
03 Mar -0.5 04:18:38 10° NNE 04:18:38 10° NNE 04:18:39 10° NNE visible
03 Mar -1.2 05:52:36 10° NNW 05:53:11 10° N 05:53:47 10° N visible
